STARLINK-32403, 61629

Orbit data source: Space-Track

STARLINK-32403, 61629 is a payload satellite owned by SpaceX/Seattle (US) in LEO that was launched on Wed, 23 Oct 2024 UTC via an FALCON 9 launch vehicle from the Air Force Eastern Test Range (AFETR). Payload-class satellites include a variety of spacecraft equipped with specific instruments for various scientific and technological missions. These include communications satellites like Starlink; space stations such as the ISS; scientific satellites like the Hubble; Earth observation satellites from companies like Planet Labs, Umbra, and HawkEye 360; GPS; miniature CubeSats for education and research; and military/defense satellites.

Loading next visibility...
Identifier
61629, 2024-191J
Orbit
LEO
Country
Flag of USUS
Related business
Manufacturer
SpaceX/Seattle
Mission
Operational Commercial Communications
Bus & Motor
STARLINK V2M, Unknown motor
Mass
730 kg wet, ~700 kg dry
Launch date (UTC)
2024-10-23 (1 year ago)
Launch vehicle
FALCON 9
Launch site
Air Force Eastern Test Range (AFETR)
Object type
Payload
Rocket body
Debris
Shape & HBR
Box + 2 Pan, 17.7 m
Radar Cross Section
33.884 m², Large (>1 m²)

Expand to show TLE details & history
Last TLE update: 1 day ago

TLE from 1 day ago
0 STARLINK-32403
1 61629U 24191J   25291.25818374  .00001610  00000-0  68010-4 0  9995
2 61629  43.0050 238.8557 0000995 256.1864 103.8878 15.27586845 55759
Epoch: 2025-10-18T06:11Z
TLE epoch observation values (Epoch: 2025-10-18T06:11:47.075Z)
Latitude
0.00006°
Longitude
118.91784°
Altitude
482.968 km
Speed
7.626 km/s
True Right ascension
15h 55m 25s
True Declination
0° 00' 00"
Sunlit
Object was in daylight at epoch
Visualization orbit readout
Latitude
Unknown
Longitude
Unknown
Altitude
Unknown
Speed
Unknown
Apparent Right ascension
Unknown
Apparent Declination
Unknown
Sunlit
N/A
Visualization observer readout
Local Sidereal Time
01:19:50
Azimuth
Unknown
Elevation
Unknown
Doppler factor
Unknown
Orbital elements
Apogee altitude
485.656 km
Perigee altitude
484.29 km
Semi-major axis
6,863.11 km
Eccentricity
0.0001
Inclination
43.005°
RAAN
238.8557°
Arg. of periapsis
256.1864°
True anomaly
103.89887°
Mean anomaly
103.8878°
Eccentric anomaly
103.89333°
Mean motion
3.81735 °/min
Orbital period
94.31 mins
BSTAR
0.00006801
Loading maneuver chart data...
Computing Atmospheric mass density...
Loading historical data...
Loading historical data...
Loading historical data...
Loading historical data...
Loading historical data...
Loading historical data...
Loading historical data...

Documentation

Showing up to 5 results
|